| time (UTC) | temp C | wind direction | speed KPH | gust KPH | rain 1hr cm | rain 24hr cm | rain mn cm | humidity % | barometer mb |
| 20260504174543 | 21 | 0 | 0.0 | 1.6 | 0.00 | 0.00 | 0.00 | 36 | 1010.9 |
| 20260504173051 | 21 | 0 | 0.0 | 3.2 | 0.00 | 0.00 | 0.00 | 36 | 1010.9 |
| 20260504171553 | 21 | 0 | 0.0 | 1.6 | 0.00 | 0.00 | 0.00 | 37 | 1011.1 |
| 20260504081544 | 1 | 0 | 0.0 | 0.0 | 0.00 | 0.00 | 0.00 | 91 | 1013.7 |
| 20260504044546 | 3 | 0 | 0.0 | 0.0 | 0.00 | 0.00 | 0.00 | 85 | 1013.5 |
| 20260504043108 | 3 | 0 | 0.0 | 0.0 | 0.00 | 0.00 | 0.00 | 84 | 1013.5 |
| 20260504041550 | 3 | 0 | 0.0 | 0.0 | 0.00 | 0.00 | 0.00 | 83 | 1013.4 |
| 20260504040052 | 3 | 0 | 0.0 | 0.0 | 0.00 | 0.00 | 0.00 | 83 | 1013.1 |
| 20260504034551 | 3 | 0 | 0.0 | 0.0 | 0.00 | 0.00 | 0.00 | 82 | 1012.9 |
| 20260504033059 | 4 | 0 | 0.0 | 0.0 | 0.00 | 0.00 | 0.00 | 81 | 1012.9 |
| 20260504031554 | 4 | 0 | 0.0 | 0.0 | 0.00 | 0.00 | 0.00 | 80 | 1013.0 |
| 20260504024547 | 5 | 0 | 0.0 | 0.0 | 0.00 | 0.00 | 0.00 | 78 | 1012.9 |
| 20260504023047 | 5 | 0 | 0.0 | 0.0 | 0.00 | 0.00 | 0.00 | 77 | 1012.8 |
| 20260504021548 | 5 | 0 | 0.0 | 0.0 | 0.00 | 0.00 | 0.00 | 75 | 1012.8 |
| 20260504020042 | 6 | 0 | 0.0 | 0.0 | 0.00 | 0.00 | 0.00 | 73 | 1012.8 |
| 20260504014541 | 6 | 0 | 0.0 | 0.0 | 0.00 | 0.00 | 0.00 | 71 | 1012.7 |
| 20260504013046 | 6 | 0 | 0.0 | 0.0 | 0.00 | 0.00 | 0.00 | 67 | 1012.6 |
| 20260504011546 | 7 | 0 | 0.0 | 0.0 | 0.00 | 0.00 | 0.00 | 66 | 1012.4 |
| 20260504010054 | 8 | 0 | 0.0 | 0.0 | 0.00 | 0.00 | 0.00 | 63 | 1012.3 |
| 20260504004546 | 8 | 0 | 0.0 | 0.0 | 0.00 | 0.00 | 0.00 | 59 | 1012.1 |
| 20260504003048 | 10 | 0 | 0.0 | 0.0 | 0.00 | 0.00 | 0.00 | 55 | 1011.8 |
| 20260504001556 | 11 | 0 | 0.0 | 0.0 | 0.00 | 0.00 | 0.00 | 50 | 1011.5 |
| 20260504000057 | 12 | 0 | 0.0 | 0.0 | 0.00 | 0.00 | 0.00 | 45 | 1011.3 |
| 20260503234544 | 13 | 0 | 0.0 | 0.0 | 0.00 | 0.00 | 0.00 | 41 | 1011.2 |
| 20260503233121 | 14 | 0 | 0.0 | 0.0 | 0.00 | 0.00 | 0.00 | 40 | 1011.1 |
| 20260503231553 | 14 | 0 | 0.0 | 1.6 | 0.00 | 0.00 | 0.00 | 34 | 1011.1 |
| 20260503230104 | 15 | 0 | 0.0 | 0.0 | 0.00 | 0.00 | 0.00 | 38 | 1011.1 |
| 20260503224550 | 15 | 0 | 0.0 | 4.8 | 0.00 | 0.00 | 0.00 | 33 | 1010.9 |
| 20260503223107 | 15 | 0 | 0.0 | 17.7 | 0.00 | 0.00 | 0.00 | 33 | 1010.8 |
| 20260503221553 | 16 | 0 | 0.0 | 14.5 | 0.00 | 0.00 | 0.00 | 34 | 1010.8 |
| 20260503220042 | 16 | 0 | 0.0 | 6.4 | 0.00 | 0.00 | 0.00 | 33 | 1010.7 |
| 20260503214555 | 16 | 0 | 0.0 | 12.9 | 0.00 | 0.00 | 0.00 | 34 | 1010.7 |
| 20260503213050 | 16 | 0 | 0.0 | 14.5 | 0.00 | 0.00 | 0.00 | 30 | 1010.7 |
| 20260503211550 | 16 | 0 | 0.0 | 1.6 | 0.00 | 0.00 | 0.00 | 32 | 1010.7 |
| 20260503210045 | 16 | 0 | 0.0 | 6.4 | 0.00 | 0.00 | 0.00 | 33 | 1010.8 |
| 20260503204550 | 16 | 223 | 0.0 | 19.3 | 0.00 | 0.00 | 0.00 | 30 | 1010.8 |
| 20260503203049 | 16 | 0 | 0.0 | 4.8 | 0.00 | 0.00 | 0.00 | 34 | 1010.9 |
| 20260503201550 | 15 | 0 | 0.0 | 6.4 | 0.00 | 0.00 | 0.00 | 32 | 1011.1 |
| 20260503200048 | 15 | 0 | 0.0 | 6.4 | 0.00 | 0.00 | 0.00 | 35 | 1011.1 |
| 20260503194551 | 15 | 0 | 1.6 | 6.4 | 0.00 | 0.00 | 0.00 | 33 | 1011.2 |
| 20260503193050 | 15 | 298 | 0.0 | 19.3 | 0.00 | 0.00 | 0.00 | 31 | 1011.2 |
| 20260503191540 | 15 | 0 | 0.0 | 6.4 | 0.00 | 0.00 | 0.00 | 34 | 1011.4 |
| 20260503190050 | 14 | 0 | 0.0 | 4.8 | 0.00 | 0.00 | 0.00 | 35 | 1011.5 |
| 20260503184548 | 14 | 0 | 1.6 | 11.3 | 0.00 | 0.00 | 0.00 | 32 | 1011.6 |
| 20260503183052 | 14 | 213 | 0.0 | 6.4 | 0.00 | 0.00 | 0.00 | 36 | 1011.9 |
| 20260503181604 | 14 | 0 | 0.0 | 8.0 | 0.00 | 0.00 | 0.00 | 38 | 1012.0 |
| 20260503180053 | 13 | 0 | 0.0 | 8.0 | 0.00 | 0.00 | 0.00 | 34 | 1011.8 |